Time,TemperatureF,DewpointF,PressureIn,WindDirection,WindDirectionDegrees,WindSpeedMPH,WindSpeedGustMPH,Humidity,HourlyPrecipIn,Conditions,Clouds,dailyrainin,SolarRadiationWatts/m^2,SoftwareType,DateUTC
2013-12-04 00:22:00,27.0,26.0,-100.00,East,81,3.0,11.0,95,0.00,,,0.00,0.000000,,2013-12-04 07:22:00,
2013-12-04 00:32:00,27.0,26.0,-100.00,East,81,3.0,11.0,95,0.00,,,0.00,0.000000,,2013-12-04 07:32:00,
2013-12-04 00:42:00,27.0,26.0,-100.00,East,81,3.0,11.0,95,0.00,,,0.00,0.000000,,2013-12-04 07:42:00,
2013-12-04 00:52:00,27.0,26.0,-100.00,East,81,3.0,11.0,95,0.00,,,0.00,0.000000,,2013-12-04 07:52:00,
2013-12-04 01:22:00,27.0,26.0,-100.00,East,87,6.0,11.0,96,0.00,,,0.00,0.000000,,2013-12-04 08:22:00,
2013-12-04 01:32:00,27.0,26.0,-100.00,East,87,6.0,11.0,96,0.00,,,0.00,0.000000,,2013-12-04 08:32:00,
2013-12-04 01:42:00,27.0,26.0,-100.00,East,87,6.0,11.0,96,0.00,,,0.00,0.000000,,2013-12-04 08:42:00,
2013-12-04 01:52:00,27.0,26.0,-100.00,East,87,6.0,11.0,96,0.00,,,0.00,0.000000,,2013-12-04 08:52:00,
2013-12-04 02:22:00,27.0,26.0,-100.00,East,95,3.0,13.0,95,0.00,,,0.00,0.000000,,2013-12-04 09:22:00,
2013-12-04 02:33:00,27.0,26.0,-100.00,East,95,3.0,13.0,95,0.00,,,0.00,0.000000,,2013-12-04 09:33:00,
2013-12-04 02:43:00,27.0,26.0,-100.00,East,95,3.0,13.0,95,0.00,,,0.00,0.000000,,2013-12-04 09:43:00,
2013-12-04 02:53:00,27.0,26.0,-100.00,East,95,3.0,13.0,95,0.00,,,0.00,0.000000,,2013-12-04 09:53:00,
2013-12-04 03:23:00,21.0,19.0,-100.00,West,281,7.0,9.0,93,0.00,,,0.00,0.000000,,2013-12-04 10:23:00,
2013-12-04 03:33:00,21.0,19.0,-100.00,West,281,7.0,9.0,93,0.00,,,0.00,0.000000,,2013-12-04 10:33:00,
2013-12-04 03:42:00,21.0,19.0,-100.00,West,281,7.0,9.0,93,0.00,,,0.00,0.000000,,2013-12-04 10:42:00,
2013-12-04 03:53:00,21.0,19.0,-100.00,West,281,7.0,9.0,93,0.00,,,0.00,0.000000,,2013-12-04 10:53:00,
2013-12-04 04:22:00,19.0,17.0,-100.00,West,278,6.0,10.0,91,0.00,,,0.00,0.000000,,2013-12-04 11:22:00,
2013-12-04 04:33:00,19.0,17.0,-100.00,West,278,6.0,10.0,91,0.00,,,0.00,0.000000,,2013-12-04 11:33:00,
2013-12-04 04:42:00,19.0,17.0,-100.00,West,278,6.0,10.0,91,0.00,,,0.00,0.000000,,2013-12-04 11:42:00,
2013-12-04 04:53:00,19.0,17.0,-100.00,West,278,6.0,10.0,91,0.00,,,0.00,0.000000,,2013-12-04 11:53:00,
2013-12-04 05:42:00,13.0,10.0,-100.00,WNW,282,7.0,16.0,88,0.00,,,-99.99,0.000000,,2013-12-04 12:42:00,
2013-12-04 05:52:00,13.0,10.0,-100.00,WNW,282,7.0,16.0,88,0.00,,,-99.99,0.000000,,2013-12-04 12:52:00,
2013-12-04 06:22:00,11.0,8.0,-100.00,West,279,8.0,13.0,86,0.00,,,0.00,0.000000,,2013-12-04 13:22:00,
2013-12-04 06:32:00,11.0,8.0,-100.00,West,279,8.0,13.0,86,0.00,,,0.00,0.000000,,2013-12-04 13:32:00,
2013-12-04 06:42:00,11.0,8.0,-100.00,West,279,8.0,13.0,86,0.00,,,0.00,0.000000,,2013-12-04 13:42:00,
2013-12-04 06:52:00,11.0,8.0,-100.00,West,279,8.0,13.0,86,0.00,,,0.00,0.000000,,2013-12-04 13:52:00,
2013-12-04 07:22:00,8.0,4.0,-100.00,NW,307,7.0,15.0,85,0.00,,,0.00,0.000000,,2013-12-04 14:22:00,
2013-12-04 07:32:00,8.0,4.0,-100.00,NW,307,7.0,15.0,85,0.00,,,0.00,0.000000,,2013-12-04 14:32:00,
2013-12-04 07:42:00,8.0,4.0,-100.00,NW,307,7.0,15.0,85,0.00,,,0.00,0.000000,,2013-12-04 14:42:00,
2013-12-04 07:52:00,8.0,4.0,-100.00,NW,307,7.0,15.0,85,0.00,,,0.00,0.000000,,2013-12-04 14:52:00,
2013-12-04 08:22:00,9.0,5.0,-100.00,West,265,3.0,10.0,85,0.00,,,0.00,6.000000,,2013-12-04 15:22:00,
2013-12-04 08:33:00,9.0,5.0,-100.00,West,265,3.0,10.0,85,0.00,,,0.00,6.000000,,2013-12-04 15:33:00,
2013-12-04 08:43:00,9.0,5.0,-100.00,West,265,3.0,10.0,85,0.00,,,0.00,6.000000,,2013-12-04 15:43:00,
2013-12-04 08:53:00,9.0,5.0,-100.00,West,265,3.0,10.0,85,0.00,,,0.00,6.000000,,2013-12-04 15:53:00,
2013-12-04 09:23:00,8.0,4.0,-100.00,West,280,6.0,10.0,84,0.00,,,0.00,30.000000,,2013-12-04 16:23:00,
2013-12-04 09:33:00,8.0,4.0,-100.00,West,280,6.0,10.0,84,0.00,,,0.00,30.000000,,2013-12-04 16:33:00,
2013-12-04 09:43:00,8.0,4.0,-100.00,West,280,6.0,10.0,84,0.00,,,0.00,30.000000,,2013-12-04 16:43:00,
2013-12-04 09:53:00,8.0,4.0,-100.00,West,280,6.0,10.0,84,0.00,,,0.00,30.000000,,2013-12-04 16:53:00,
2013-12-04 10:22:00,8.0,4.0,-100.00,West,265,7.0,11.0,83,0.00,,,0.00,102.000000,,2013-12-04 17:22:00,
2013-12-04 10:33:00,8.0,4.0,-100.00,West,265,7.0,11.0,83,0.00,,,0.00,102.000000,,2013-12-04 17:33:00,
2013-12-04 10:42:00,8.0,4.0,-100.00,West,265,7.0,11.0,83,0.00,,,0.00,102.000000,,2013-12-04 17:42:00,
2013-12-04 10:52:00,8.0,4.0,-100.00,West,265,7.0,11.0,83,0.00,,,0.00,102.000000,,2013-12-04 17:52:00,
2013-12-04 11:22:00,8.0,4.0,-100.00,WNW,290,8.0,11.0,83,0.00,,,0.00,191.000000,,2013-12-04 18:22:00,
2013-12-04 11:33:00,8.0,4.0,-100.00,WNW,290,8.0,11.0,83,0.00,,,0.00,191.000000,,2013-12-04 18:33:00,
2013-12-04 11:42:00,8.0,4.0,-100.00,WNW,290,8.0,11.0,83,0.00,,,0.00,191.000000,,2013-12-04 18:42:00,
2013-12-04 11:52:00,8.0,4.0,-100.00,WNW,290,8.0,11.0,83,0.00,,,0.00,191.000000,,2013-12-04 18:52:00,
2013-12-04 12:22:00,8.0,4.0,-100.00,West,269,11.0,15.0,83,0.00,,,0.00,223.000000,,2013-12-04 19:22:00,
2013-12-04 12:32:00,8.0,4.0,-100.00,West,269,11.0,15.0,83,0.00,,,0.00,223.000000,,2013-12-04 19:32:00,
2013-12-04 12:42:00,8.0,4.0,-100.00,West,269,11.0,15.0,83,0.00,,,0.00,223.000000,,2013-12-04 19:42:00,
2013-12-04 12:52:00,8.0,4.0,-100.00,West,269,11.0,15.0,83,0.00,,,0.00,223.000000,,2013-12-04 19:52:00,
2013-12-04 13:22:00,8.0,4.0,-100.00,West,276,12.0,19.0,83,0.00,,,0.00,180.000000,,2013-12-04 20:22:00,
2013-12-04 13:32:00,8.0,4.0,-100.00,West,276,12.0,19.0,83,0.00,,,0.00,180.000000,,2013-12-04 20:32:00,
2013-12-04 13:42:00,8.0,4.0,-100.00,West,276,12.0,19.0,83,0.00,,,0.00,180.000000,,2013-12-04 20:42:00,
2013-12-04 13:52:00,8.0,4.0,-100.00,West,276,12.0,19.0,83,0.00,,,0.00,180.000000,,2013-12-04 20:52:00,
2013-12-04 14:22:00,8.0,4.0,-100.00,West,269,9.0,20.0,83,0.00,,,0.00,229.000000,,2013-12-04 21:22:00,
2013-12-04 14:33:00,8.0,4.0,-100.00,West,269,9.0,20.0,83,0.00,,,0.00,229.000000,,2013-12-04 21:33:00,
2013-12-04 14:44:00,8.0,4.0,-100.00,West,269,9.0,20.0,83,0.00,,,0.00,229.000000,,2013-12-04 21:44:00,
2013-12-04 14:54:00,8.0,4.0,-100.00,West,269,9.0,20.0,83,0.00,,,0.00,229.000000,,2013-12-04 21:54:00,
2013-12-04 15:23:00,7.0,3.0,-100.00,West,264,8.0,15.0,82,0.00,,,0.00,178.000000,,2013-12-04 22:23:00,
2013-12-04 15:33:00,7.0,3.0,-100.00,West,264,8.0,15.0,82,0.00,,,0.00,178.000000,,2013-12-04 22:33:00,
2013-12-04 15:43:00,7.0,3.0,-100.00,West,264,8.0,15.0,82,0.00,,,0.00,178.000000,,2013-12-04 22:43:00,
2013-12-04 15:53:00,7.0,3.0,-100.00,West,264,8.0,15.0,82,0.00,,,0.00,178.000000,,2013-12-04 22:53:00,
2013-12-04 16:22:00,4.0,-1.0,-100.00,West,270,7.0,12.0,81,0.00,,,0.00,121.000000,,2013-12-04 23:22:00,
2013-12-04 16:33:00,4.0,-1.0,-100.00,West,270,7.0,12.0,81,0.00,,,0.00,121.000000,,2013-12-04 23:33:00,
2013-12-04 16:42:00,4.0,-1.0,-100.00,West,270,7.0,12.0,81,0.00,,,0.00,121.000000,,2013-12-04 23:42:00,
2013-12-04 16:52:00,4.0,-1.0,-100.00,West,270,7.0,12.0,81,0.00,,,0.00,121.000000,,2013-12-04 23:52:00,
2013-12-04 17:22:00,3.0,-1.0,-100.00,West,264,7.0,11.0,81,0.00,,,0.00,19.000000,,2013-12-05 00:22:00,
2013-12-04 17:32:00,3.0,-1.0,-100.00,West,264,7.0,11.0,81,0.00,,,0.00,19.000000,,2013-12-05 00:32:00,
2013-12-04 17:42:00,3.0,-1.0,-100.00,West,264,7.0,11.0,81,0.00,,,0.00,19.000000,,2013-12-05 00:42:00,
2013-12-04 17:52:00,3.0,-1.0,-100.00,West,264,7.0,11.0,81,0.00,,,0.00,19.000000,,2013-12-05 00:52:00,
2013-12-04 18:22:00,1.0,-4.0,-100.00,West,262,4.0,8.0,80,0.00,,,0.00,0.000000,,2013-12-05 01:22:00,
2013-12-04 18:32:00,1.0,-4.0,-100.00,West,262,4.0,8.0,80,0.00,,,0.00,0.000000,,2013-12-05 01:32:00,
2013-12-04 18:42:00,1.0,-4.0,-100.00,West,262,4.0,8.0,80,0.00,,,0.00,0.000000,,2013-12-05 01:42:00,
2013-12-04 18:52:00,1.0,-4.0,-100.00,West,262,4.0,8.0,80,0.00,,,0.00,0.000000,,2013-12-05 01:52:00,
2013-12-04 19:22:00,1.0,-4.0,-100.00,West,269,5.0,7.0,80,0.00,,,0.00,0.000000,,2013-12-05 02:22:00,
2013-12-04 19:32:00,1.0,-4.0,-100.00,West,269,5.0,7.0,80,0.00,,,0.00,0.000000,,2013-12-05 02:32:00,
2013-12-04 19:42:00,1.0,-4.0,-100.00,West,269,5.0,7.0,80,0.00,,,0.00,0.000000,,2013-12-05 02:42:00,
2013-12-04 19:52:00,1.0,-4.0,-100.00,West,269,5.0,7.0,80,0.00,,,0.00,0.000000,,2013-12-05 02:52:00,
2013-12-04 20:22:00,0.0,-5.0,-100.00,West,271,4.0,6.0,79,0.00,,,0.00,0.000000,,2013-12-05 03:22:00,
2013-12-04 20:33:00,0.0,-5.0,-100.00,West,271,4.0,6.0,79,0.00,,,0.00,0.000000,,2013-12-05 03:33:00,
2013-12-04 20:43:00,0.0,-5.0,-100.00,West,271,4.0,6.0,79,0.00,,,0.00,0.000000,,2013-12-05 03:43:00,
2013-12-04 20:54:00,0.0,-5.0,-100.00,West,271,4.0,6.0,79,0.00,,,0.00,0.000000,,2013-12-05 03:54:00,
2013-12-04 21:23:00,0.0,-5.0,-100.00,West,275,4.0,5.0,79,0.00,,,0.00,0.000000,,2013-12-05 04:23:00,
2013-12-04 21:34:00,0.0,-5.0,-100.00,West,275,4.0,5.0,79,0.00,,,0.00,0.000000,,2013-12-05 04:34:00,
2013-12-04 21:43:00,0.0,-5.0,-100.00,West,275,4.0,5.0,79,0.00,,,0.00,0.000000,,2013-12-05 04:43:00,
2013-12-04 21:53:00,0.0,-5.0,-100.00,West,275,4.0,5.0,79,0.00,,,0.00,0.000000,,2013-12-05 04:53:00,
2013-12-04 22:23:00,-1.0,-6.0,-100.00,NW,306,3.0,5.0,78,0.00,,,0.00,0.000000,,2013-12-05 05:23:00,
2013-12-04 22:33:00,-1.0,-6.0,-100.00,NW,306,3.0,5.0,78,0.00,,,0.00,0.000000,,2013-12-05 05:33:00,
2013-12-04 22:43:00,-1.0,-6.0,-100.00,NW,306,3.0,5.0,78,0.00,,,0.00,0.000000,,2013-12-05 05:43:00,
2013-12-04 22:52:00,-1.0,-6.0,-100.00,NW,306,3.0,5.0,78,0.00,,,0.00,0.000000,,2013-12-05 05:52:00,
2013-12-04 23:22:00,-2.0,-7.0,-100.00,WNW,283,2.0,4.0,78,0.00,,,0.00,0.000000,,2013-12-05 06:22:00,
2013-12-04 23:32:00,-2.0,-7.0,-100.00,WNW,283,2.0,4.0,78,0.00,,,0.00,0.000000,,2013-12-05 06:32:00,
2013-12-04 23:43:00,-2.0,-7.0,-100.00,WNW,283,2.0,4.0,78,0.00,,,0.00,0.000000,,2013-12-05 06:43:00,
2013-12-04 23:52:00,-2.0,-7.0,-100.00,WNW,283,2.0,4.0,78,0.00,,,0.00,0.000000,,2013-12-05 06:52:00,